IRIDIUM 37

Last updated on Wed Nov 29 2017 00:19:02 GMT+0000 (Coordinated Universal Time)

1 24968U 97056D 17332.27498734 .00000204 00000-0 65824-4 0 9991 2 24968 86.3984 250.2592 0002061 82.4259 277.7170 14.34221925 56053
UTC large
Height (km)
Speed (km/s)
/
Latitude / Longitude
Inclination (degrees)
Orbital Period (minutes)
Azimuth
Elevation
Range (km)
Doppler Factor

Next 0 passes for location: London (51.5072 / 0.1276)

Sorry there are no passes over London.